COSMOS 418

Satellite information

Favourite Embed

Satellite Type and Status

PAYLOADIN ORBIT

Key statistics

Satellite COSMOS 418 at a glance.

Uptime

19785

Days in orbit

Revolutions

≈ 12.5

Per day

Orbit

LEO

Low Earth Orbit

Inclination

74.0

Latest

Satellite identification and parameters

Extended collection of information and parameters for COSMOS 418.

Object identification

Identified? True

Debris? False

Object name: COSMOS 418

International designator: 1971-041H

Object number (NORAD): 5217

Object ID (CCSDS): 5217

Country: COMMONWEALTH OF INDEPENDENT STATES (CIS)

Current information (Y/N): Y

RCS size: MEDIUM

Orbital parameters

Period: 114.78 minutes

Inclination: 74.0123 deg

SMA: 7823.554 km

Apoapsis: 1492.03 km

Periapsis: 1398.808 km

RAAN: 195.5698 deg

Eccentricy: 0.0059578

Argument of periapsis: 41.5307 deg

Mean anomaly: 71.1293 deg

Mean motion: 12.54575013 rev/day

Mean motion (dot): 0.00000016 rev/day2

B* drag term: 0.00019526 1/REarth

Two-line elements (TLE)

Creation date: July 6, 2025, 6:05 p.m.

Reference frame: TEME

Reference center: EARTH

Epoch: July 6, 2025, 11:06 a.m. UTC

TLE line 0: 0 COSMOS 418

TLE line 1: 1 05217U 71041H 25187.46304588 .00000016 00000-0 19526-3 0 9992

TLE line 2: 2 05217 74.0123 195.5698 0059578 41.5307 71.1293 12.54575013480582

Live tracking on map

Real-time ground track for satellite COSMOS 418.

In-orbit conjunctions

A list of the most updated potential collisions computed for object COSMOS 418.

Target Orbit TCA Probability of collision Miss distance Type
COSMOS 2499 DEB LEO 2025-05-31 10:55:44 0.00037351 428.0 (m) DEBRIS

Associated space launch

Military communications satellites

COSMOS 418 was lifted into orbit during the mission ‘Kosmos-3M | Strela-1M 9-16’, on board a Kosmos-3M space rocket.

The launch took place on May 7, 1971, 2:20 p.m. from 132/1 (132L).

For more information about the launch, click the button.

Launch to space Kosmos-3M | Strela-1M 9-16
Kosmos-3M | Strela-1M 9-16

Agency: N/A

Status: Launch Successful

Launch date: May 7, 1971, 2:20 p.m. UTC

Rocket: Kosmos-3M

Launch pad: 132/1 (132L)

Location: Plesetsk Cosmodrome, Russian Federation

...

Latest news about this satellite

There are no fresh news available about this satellite. Check back as we update our databases every day.


Newsletter sign-up

Weekly statistics, charts and insights to help you stay on top of the space industry.